| time (UTC) | temp F | wind direction | speed MPH | gust MPH | rain 1hr in | rain 24hr in | rain mn in | humidity % | barometer mb |
| 20260508124532 | 50 | 245 | 1.0 | 6.0 | 0.00 | 0.00 | 0.00 | 80 | 1002.4 |
| 20260508123032 | 50 | 244 | 0.0 | 5.0 | 0.00 | 0.00 | 0.00 | 79 | 1002.4 |
| 20260508121551 | 50 | 252 | 1.0 | 7.0 | 0.00 | 0.00 | 0.00 | 80 | 1002.4 |
| 20260508120034 | 50 | 211 | 2.0 | 5.0 | 0.00 | 0.00 | 0.00 | 79 | 1002.4 |
| 20260508114528 | 50 | 214 | 1.0 | 5.0 | 0.00 | 0.00 | 0.00 | 80 | 1002.4 |
| 20260508113028 | 50 | 254 | 0.0 | 0.0 | 0.00 | 0.00 | 0.00 | 80 | 1002.4 |
| 20260508111526 | 50 | 254 | 0.0 | 3.0 | 0.00 | 0.00 | 0.00 | 79 | 1002.4 |
| 20260508110026 | 50 | 267 | 1.0 | 4.0 | 0.00 | 0.00 | 0.00 | 79 | 1002.4 |
| 20260508104526 | 50 | 253 | 0.0 | 0.0 | 0.00 | 0.00 | 0.00 | 78 | 1002.4 |
| 20260508103025 | 51 | 253 | 0.0 | 3.0 | 0.00 | 0.00 | 0.00 | 78 | 1002.4 |
| 20260508101524 | 51 | 247 | 1.0 | 6.0 | 0.00 | 0.00 | 0.00 | 78 | 1002.4 |
| 20260508100024 | 51 | 236 | 3.0 | 7.0 | 0.00 | 0.00 | 0.00 | 78 | 1002.4 |
| 20260508094525 | 51 | 267 | 0.0 | 5.0 | 0.00 | 0.00 | 0.00 | 79 | 1002.4 |
| 20260508093024 | 51 | 257 | 0.0 | 5.0 | 0.00 | 0.00 | 0.00 | 81 | 1002.4 |
| 20260508091520 | 51 | 191 | 0.0 | 0.0 | 0.00 | 0.00 | 0.00 | 81 | 1002.4 |
| 20260508090019 | 51 | 259 | 0.0 | 0.0 | 0.00 | 0.00 | 0.00 | 81 | 1002.4 |
| 20260508084521 | 50 | 265 | 0.0 | 0.0 | 0.00 | 0.00 | 0.00 | 83 | 1002.4 |
| 20260508083048 | 49 | 265 | 0.0 | 0.0 | 0.00 | 0.00 | 0.00 | 85 | 1002.4 |
| 20260508081516 | 50 | 265 | 0.0 | 0.0 | 0.00 | 0.00 | 0.00 | 84 | 1002.4 |
| 20260508080015 | 49 | 265 | 0.0 | 0.0 | 0.00 | 0.00 | 0.00 | 86 | 1002.4 |
| 20260508074515 | 50 | 265 | 0.0 | 0.0 | 0.00 | 0.00 | 0.00 | 86 | 1002.4 |
| 20260508073011 | 50 | 265 | 0.0 | 0.0 | 0.00 | 0.00 | 0.00 | 85 | 1002.4 |
| 20260508071508 | 51 | 265 | 0.0 | 0.0 | 0.00 | 0.00 | 0.00 | 84 | 1002.4 |
| 20260508070007 | 52 | 265 | 0.0 | 0.0 | 0.00 | 0.00 | 0.00 | 84 | 1002.4 |
| 20260508064517 | 53 | 265 | 0.0 | 0.0 | 0.00 | 0.00 | 0.00 | 82 | 1002.4 |
| 20260508063004 | 54 | 265 | 0.0 | 0.0 | 0.00 | 0.00 | 0.00 | 79 | 1002.4 |
| 20260508061504 | 55 | 265 | 0.0 | 0.0 | 0.00 | 0.00 | 0.00 | 78 | 1002.4 |
| 20260508060004 | 56 | 265 | 0.0 | 0.0 | 0.00 | 0.00 | 0.00 | 75 | 1002.4 |
| 20260508054504 | 57 | 265 | 0.0 | 0.0 | 0.00 | 0.00 | 0.00 | 73 | 1002.4 |
| 20260508053003 | 58 | 265 | 0.0 | 0.0 | 0.00 | 0.00 | 0.00 | 70 | 1002.4 |
| 20260508051502 | 58 | 265 | 0.0 | 0.0 | 0.00 | 0.00 | 0.00 | 69 | 1002.4 |
| 20260508050001 | 59 | 265 | 0.0 | 0.0 | 0.00 | 0.00 | 0.00 | 68 | 1002.4 |
| 20260508044502 | 60 | 265 | 0.0 | 0.0 | 0.00 | 0.00 | 0.00 | 68 | 1002.4 |
| 20260508043001 | 60 | 265 | 0.0 | 0.0 | 0.00 | 0.00 | 0.00 | 67 | 1002.4 |
| 20260508041605 | 61 | 265 | 0.0 | 0.0 | 0.00 | 0.00 | 0.00 | 66 | 1002.4 |
| 20260508040112 | 63 | 265 | 0.0 | 0.0 | 0.00 | 0.00 | 0.00 | 64 | 1002.4 |
| 20260508034600 | 64 | 265 | 0.0 | 0.0 | 0.00 | 0.00 | 0.00 | 62 | 1002.4 |
| 20260508033103 | 65 | 265 | 0.0 | 0.0 | 0.00 | 0.00 | 0.00 | 61 | 1002.4 |
| 20260508031607 | 65 | 265 | 0.0 | 4.0 | 0.00 | 0.00 | 0.00 | 60 | 1002.4 |
| 20260508030121 | 66 | 360 | 0.0 | 0.0 | 0.00 | 0.00 | 0.00 | 58 | 1002.4 |
| 20260508024605 | 67 | 360 | 0.0 | 0.0 | 0.00 | 0.00 | 0.00 | 57 | 1002.4 |
| 20260508023058 | 68 | 360 | 3.0 | 6.0 | 0.00 | 0.00 | 0.00 | 57 | 1002.4 |
| 20260508021557 | 70 | 160 | 0.0 | 0.0 | 0.00 | 0.00 | 0.00 | 58 | 1002.4 |
| 20260508020056 | 71 | 161 | 0.0 | 0.0 | 0.00 | 0.00 | 0.00 | 56 | 1002.4 |
| 20260508014556 | 71 | 161 | 0.0 | 1.0 | 0.00 | 0.00 | 0.00 | 55 | 1002.4 |
| 20260508013055 | 71 | 151 | 0.0 | 2.0 | 0.00 | 0.00 | 0.00 | 54 | 1002.4 |
| 20260508011608 | 71 | 153 | 0.0 | 0.0 | 0.00 | 0.00 | 0.00 | 55 | 1002.4 |
| 20260508010106 | 72 | 154 | 0.0 | 0.0 | 0.00 | 0.00 | 0.00 | 49 | 1002.4 |
| 20260508004603 | 72 | 144 | 0.0 | 4.0 | 0.00 | 0.00 | 0.00 | 50 | 1002.4 |
| 20260508003110 | 72 | 187 | 0.0 | 5.0 | 0.00 | 0.00 | 0.00 | 51 | 1002.4 |
| 20260508001553 | 71 | 128 | 0.0 | 4.0 | 0.00 | 0.00 | 0.00 | 54 | 1002.4 |
| 20260508000052 | 70 | 148 | 0.0 | 2.0 | 0.00 | 0.00 | 0.00 | 54 | 1002.4 |
| 20260507234553 | 72 | 169 | 0.0 | 2.0 | 0.00 | 0.00 | 0.00 | 49 | 1002.4 |
| 20260507233053 | 71 | 184 | 1.0 | 5.0 | 0.00 | 0.00 | 0.00 | 52 | 1002.4 |
| 20260507231606 | 69 | 157 | 0.0 | 3.0 | 0.00 | 0.00 | 0.00 | 54 | 1002.4 |
| 20260507230053 | 72 | 91 | 0.0 | 3.0 | 0.00 | 0.00 | 0.00 | 50 | 1002.4 |
| 20260507224603 | 72 | 182 | 0.0 | 4.0 | 0.00 | 0.00 | 0.00 | 48 | 1002.4 |
| 20260507223051 | 69 | 98 | 0.0 | 1.0 | 0.00 | 0.00 | 0.00 | 52 | 1002.4 |
| 20260507221549 | 72 | 174 | 0.0 | 3.0 | 0.00 | 0.00 | 0.00 | 50 | 1002.4 |
| 20260507220049 | 73 | 112 | 0.0 | 2.0 | 0.00 | 0.00 | 0.00 | 49 | 1002.4 |
| 20260507214551 | 71 | 190 | 0.0 | 3.0 | 0.00 | 0.00 | 0.00 | 52 | 1002.4 |
| 20260507213052 | 69 | 159 | 0.0 | 6.0 | 0.00 | 0.00 | 0.00 | 56 | 1002.4 |
| 20260507211542 | 67 | 57 | 0.0 | 0.0 | 0.00 | 0.00 | 0.00 | 61 | 1002.4 |
| 20260507210045 | 67 | 30 | 0.0 | 3.0 | 0.00 | 0.00 | 0.00 | 60 | 1002.4 |
| 20260507204548 | 67 | 355 | 0.0 | 0.0 | 0.00 | 0.00 | 0.00 | 61 | 1002.4 |
| 20260507203036 | 68 | 173 | 0.0 | 2.0 | 0.00 | 0.00 | 0.00 | 56 | 1002.4 |
| 20260507201540 | 67 | 80 | 0.0 | 0.0 | 0.00 | 0.00 | 0.00 | 61 | 1002.4 |
| 20260507200038 | 66 | 119 | 0.0 | 2.0 | 0.00 | 0.00 | 0.00 | 59 | 1002.4 |
| 20260507194533 | 65 | 105 | 0.0 | 4.0 | 0.00 | 0.00 | 0.00 | 65 | 1002.4 |
| 20260507193033 | 64 | 41 | 0.0 | 7.0 | 0.00 | 0.00 | 0.00 | 69 | 1002.4 |
| 20260507191531 | 66 | 145 | 1.0 | 6.0 | 0.00 | 0.00 | 0.00 | 61 | 1002.4 |
| 20260507190036 | 62 | 96 | 0.0 | 0.0 | 0.00 | 0.00 | 0.00 | 68 | 1002.4 |
| 20260507184536 | 61 | 64 | 0.0 | 2.0 | 0.00 | 0.00 | 0.00 | 71 | 1002.4 |
| 20260507183027 | 61 | 88 | 0.0 | 0.0 | 0.00 | 0.00 | 0.00 | 73 | 1002.4 |
| 20260507181525 | 61 | 88 | 0.0 | 0.0 | 0.00 | 0.00 | 0.00 | 71 | 1002.4 |
| 20260507180026 | 62 | 149 | 1.0 | 5.0 | 0.00 | 0.00 | 0.00 | 71 | 1002.4 |
| 20260507174529 | 60 | 40 | 0.0 | 0.0 | 0.00 | 0.00 | 0.00 | 78 | 1002.4 |
| 20260507173024 | 59 | 118 | 0.0 | 0.0 | 0.00 | 0.00 | 0.00 | 79 | 1002.4 |
| 20260507171515 | 58 | 5 | 0.0 | 0.0 | 0.00 | 0.00 | 0.00 | 80 | 1002.4 |
| 20260507170015 | 57 | 5 | 0.0 | 0.0 | 0.00 | 0.00 | 0.00 | 82 | 1002.4 |
| 20260507164517 | 56 | 5 | 0.0 | 3.0 | 0.00 | 0.00 | 0.00 | 82 | 1002.4 |
| 20260507163010 | 56 | 5 | 0.0 | 3.0 | 0.00 | 0.00 | 0.00 | 82 | 1002.4 |
| 20260507161510 | 56 | 360 | 0.0 | 4.0 | 0.00 | 0.00 | 0.00 | 83 | 1002.4 |
| 20260507160007 | 56 | 342 | 0.0 | 2.0 | 0.00 | 0.00 | 0.00 | 82 | 1002.4 |
| 20260507154506 | 55 | 340 | 0.0 | 2.0 | 0.00 | 0.00 | 0.00 | 84 | 1002.4 |
| 20260507153006 | 55 | 324 | 0.0 | 0.0 | 0.00 | 0.00 | 0.00 | 86 | 1002.4 |
| 20260507151502 | 55 | 292 | 0.0 | 0.0 | 0.00 | 0.00 | 0.00 | 87 | 1002.4 |
| 20260507150105 | 54 | 292 | 0.0 | 0.0 | 0.00 | 0.00 | 0.00 | 88 | 1002.4 |
| 20260507144602 | 54 | 292 | 0.0 | 0.0 | 0.00 | 0.00 | 0.00 | 89 | 1002.4 |
| 20260507143102 | 54 | 292 | 0.0 | 0.0 | 0.00 | 0.00 | 0.00 | 89 | 1002.4 |
| 20260507141603 | 53 | 292 | 0.0 | 0.0 | 0.00 | 0.00 | 0.00 | 89 | 1002.4 |
| 20260507140118 | 53 | 292 | 0.0 | 0.0 | 0.00 | 0.00 | 0.00 | 90 | 1002.4 |
| 20260507134556 | 53 | 292 | 0.0 | 0.0 | 0.00 | 0.00 | 0.00 | 90 | 1002.4 |
| 20260507133057 | 53 | 292 | 0.0 | 0.0 | 0.00 | 0.00 | 0.00 | 90 | 1002.4 |
| 20260507131604 | 53 | 292 | 0.0 | 0.0 | 0.00 | 0.00 | 0.00 | 90 | 1002.4 |
| 20260507130108 | 53 | 292 | 0.0 | 0.0 | 0.00 | 0.00 | 0.00 | 90 | 1002.4 |